Other Public Products
Issued by NWS Grand Forks, ND

Current Version | Previous Version | Text Only | Print | Product List | Glossary On
Versions: 1 2 3 4 5 6 7 8 9 10 11 12 13 14 15 16 17 18 19 20 21 22 23 24 25 26 27 28 29 30 31 32 33 34 35 36 37 38 39 40 41 42 43 44 45 46 47 48 49 50
000
FPUS83 KFGF 051831
OPUFGF
PRAIRIE TO PINES WEATHER ROUNDUP
NATIONAL WEATHER SERVICE EASTERN NORTH DAKOTA/GRAND FORKS ND
1200 PM CST MON DEC 05 2016

 **SATELLITE DATA USED TO AUGMENT SKY COVER AT AUTOMATED STATIONS**
 *****  WEATHER ACROSS EASTERN NORTH DAKOTA  *****

CITY           SKY/WX    TMP DP  RH WIND       PRES   REMARKS
GRAND FORKS    CLOUDY    30  26  85 E8        29.66F WCI  22
6HR MIN TEMP:  26; 6HR MAX TEMP:  29;

GRAND FORKS AF CLOUDY    28  27  93 E6        29.66F WCI  22
GRAND CITY NWS   N/A     28 N/A N/A NE5         N/A  WCI  23
BUXTON           N/A     44  43  99 NE8         N/A
DEVILS LAKE    CLOUDY    26  25  96 SE9       29.63R FOG     WCI  17
6HR MIN TEMP:  22; 6HR MAX TEMP:  26; 6HR PCP: TRACE;

FARGO          CLOUDY    33  28  81 E10       29.59F WCI  25
6HR MIN TEMP:  20; 6HR MAX TEMP:  33;

WAHPETON ARPT  PTCLDY    34  30  86 E9        29.55F
$$

 *****  WEATHER ACROSS CENTRAL AND WESTERN NORTH DAKOTA  *****

CITY           SKY/WX    TMP DP  RH WIND       PRES   REMARKS
JAMESTOWN      CLOUDY    28  26  92 N8        29.58R WCI  20
6HR MIN TEMP:  22; 6HR MAX TEMP:  28;

BISMARCK       SNOW      31  30  96 NW16      29.57F VSB 1/2 WCI  20
6HR MIN TEMP:  19; 6HR MAX TEMP:  32; 6HR PCP:  0.11;

MINOT          CLOUDY    27  22  81 SW12      29.55S WCI  17
6HR MIN TEMP:  19; 6HR MAX TEMP:  29; 6HR PCP: TRACE;

MINOT AFB      CLOUDY    23  19  86 W16       29.54F WCI  10
6HR MIN TEMP:  18; 6HR MAX TEMP:  24; 6HR PCP: TRACE;

GARRISON         N/A     26  22  84 NW20      29.57S WCI  12
6HR MIN TEMP:  26; 6HR MAX TEMP:  33;

WILLISTON      LGT SNOW  22  17  81 NW32G39   29.66S VSB 3/4 WCI   3
6HR MIN TEMP:  22; 6HR MAX TEMP:  30; 6HR PCP: TRACE;

DICKINSON      LGT SNOW  21  16  81 NW29      29.64R WCI   3
6HR MIN TEMP:  21; 6HR MAX TEMP:  31;

HETTINGER      CLOUDY    22  18  85 NW33G43   29.65S BLWGSNOWWCI   3
6HR MIN TEMP:  22; 6HR MAX TEMP:  31; 6HR PCP: TRACE;

$$

 *****  OTHER OBSERVATIONS NORTHEAST NORTH DAKOTA  *****

CITY           SKY/WX    TMP DP  RH WIND       PRES   REMARKS
WALHALLA         N/A     27  27 100 E10       29.68F WCI  17
LANGDON        FOG       27  27 100 MISG      29.61F VSB 1/2
CAVALIER         N/A     28  27  93 E9        29.68S WCI  20
GRAFTON        CLOUDY    28  28 100 E10G17    29.69F WCI  19
CANDO          CLOUDY    27  27 100 SE8       29.65R WCI  18
FORT TOTTEN      N/A     25  25 100 S6        29.95S WCI  18
ROLLA          FLURRIES  23  23 100 SE10      29.60F WCI  12
RUGBY          SNOW      25  25 100 SE9       29.59S VSB 1/2 WCI  15
 ***** THE ABOVE OBSERVATIONS ARE NON NWS ARE NOT QUALITY
        CONTROLLED AND MAY MIS-REPORT RAIN FOR SNOW...
$$

 *****  OTHER OBSERVATIONS SOUTHEAST NORTH DAKOTA *****

CITY           SKY/WX    TMP DP  RH WIND       PRES   REMARKS
COOPERSTOWN    CLOUDY    27  27 100 NE10      29.60S FOG     WCI  17
VALLEY CITY    MOCLDY    27  27 100 NE6       29.58F WCI  20
OAKES          NOT AVBL
GWINNER        CLOUDY    32  32 100 E10       29.53S WCI  24
SHEYENNE NWR     N/A     33  29  86 E9        29.95
BUFFALO          N/A     28  26  94 N10         N/A  WCI  18
WYNDMERE         N/A     34  32  93 E12         N/A
 ***** THE ABOVE OBSERVATIONS ARE NON NWS ARE NOT QUALITY
       CONTROLLED AND MAY MIS-REPORT RAIN FOR SNOW...
$$

  *****  WEATHER ACROSS NORTHERN MINNESOTA  *****

CITY           SKY/WX    TMP DP  RH WIND       PRES   REMARKS
FLAG ISLAND    CLOUDY    30  25  80 E3        29.72F
WARROAD        CLOUDY    30  27  86 E8        29.73S WCI  23
ROSEAU         CLOUDY    30  27  86 E9        29.71F WCI  22
HALLOCK        CLOUDY    30  27  86 E13       29.67F WCI  20
THF RVR FALLS  CLOUDY    28  27  93 E16       29.67F WCI  17
6HR MIN TEMP:  26; 6HR MAX TEMP:  28;

HALSTAD          N/A     31  27  84 E12         N/A  WCI  21
FOSSTON        CLOUDY    28  27  93 E9        29.65F WCI  20
BAUDETTE       CLOUDY    30  25  81 NE8       29.73F WCI  22
6HR MIN TEMP:  29; 6HR MAX TEMP:  31;

WASKISH        CLOUDY    30  27  86 E8        29.72F WCI  23
CROOKSTON      CLOUDY    30  28  93 E12       29.66F WCI  21
$$
  *****  WEATHER ACROSS CENTRAL AND WEST MINNESOTA  *****

CITY           SKY/WX    TMP DP  RH WIND       PRES   REMARKS
BEMIDJI        CLOUDY    28  27  93 E9        29.68F WCI  20
PARK RAPIDS    CLOUDY    29  24  82 E6        29.64F WCI  23
6HR MIN TEMP:  26; 6HR MAX TEMP:  29;

WADENA         MOSUNNY   28  28 100 E10       29.62F WCI  19
DETROIT LAKES  MOSUNNY   32  28  86 E9        29.61F WCI  24
MOORHEAD       CLOUDY    34  27  75 E7        29.59F
FERGUS FALLS   MOSUNNY   34  28  80 E10G18    29.60F
ELBOW LAKE     MOCLDY    34  31  89 SE14      29.56F WCI  25
MORRIS MN      CLOUDY    36  32  87 E13G18    29.53F
STAPLES        SUNNY     30  27  86 E10       29.64F WCI  21
WHEATON        CLOUDY    36  34  93 E12       29.55F
$$
  *****  WEATHER ELSEWHERE ACROSS MINNESOTA  *****

CITY           SKY/WX    TMP DP  RH WIND       PRES   REMARKS
DULUTH         MOSUNNY   33  28  81 SE7       29.76F
6HR MIN TEMP:  30; 6HR MAX TEMP:  33;

INTRNTL FALLS  CLOUDY    31  24  75 E3        29.74F
6HR MIN TEMP:  29; 6HR MAX TEMP:  32;

ELY            CLOUDY    28  25  86 CALM      29.75F
CLOQUET        CLOUDY    30  27  86 E5        29.76F
BRAINERD       MOSUNNY   29  27  92 E9        29.69F WCI  20
6HR MIN TEMP:  21; 6HR MAX TEMP:  30;

HIBBING        SUNNY     28  24  85 SE5       29.75F WCI  23
6HR MIN TEMP:  27; 6HR MAX TEMP:  29;

ALEXANDRIA     PTSUNNY   35  31  85 E14G23    29.60F
6HR MIN TEMP:  25; 6HR MAX TEMP:  35;

SAINT CLOUD    MOSUNNY   35  33  92 SE9       29.66F
6HR MIN TEMP:  23; 6HR MAX TEMP:  35;

MINNEAPOLIS    CLOUDY    37  31  78 SE14      29.70F
6HR MIN TEMP:  28; 6HR MAX TEMP:  37;

$$

  *****  WEATHER ACROSS SOUTH DAKOTA  *****

CITY           SKY/WX    TMP DP  RH WIND       PRES   REMARKS
SIOUX FALLS    CLOUDY    41  32  70 S16G22    29.51F
6HR MIN TEMP:  35; 6HR MAX TEMP:  41;

BROOKINGS      CLOUDY    36  31  82 SE12      29.48F
WATERTOWN      CLOUDY    35  30  82 SE13      29.47F
6HR MIN TEMP:  31; 6HR MAX TEMP:  35;

HURON          PTSUNNY   39  30  70 MISG      29.47R
6HR MIN TEMP:  29; 6HR MAX TEMP:  39;

SISSETON         N/A     31  29  92 SE7       29.52F WCI  24
ABERDEEN       CLOUDY    36  29  75 CALM      29.49F
6HR MIN TEMP:  21; 6HR MAX TEMP:  36;

MITCHELL       PTSUNNY   42  30  62 S10       29.47F
PIERRE         PTSUNNY   35  29  78 NW24G40   29.53R WCI  23
6HR MIN TEMP:  20; 6HR MAX TEMP:  34;

MOBRIDGE       CLOUDY    33  28  81 N12       29.52R WCI  24
RAPID CITY     CLOUDY    27  17  66 NW35G53   29.64R WCI  10
6HR MIN TEMP:  27; 6HR MAX TEMP:  35; 6HR PCP: TRACE;

$$

  *****  SOME WEATHER IN NEARBY STATES *****

CITY           SKY/WX    TMP DP  RH WIND       PRES   REMARKS
GLASGOW MT     CLOUDY    11   3  70 NW32G41   29.90R WCI -12
6HR MIN TEMP:  11; 6HR MAX TEMP:  22; 6HR PCP: TRACE;

GREAT FALLS MT LGT SNOW  13   4  67 NW8       30.03  WCI   2
6HR MIN TEMP:  12; 6HR MAX TEMP:  18; 6HR PCP: TRACE;

CHEYENNE WY    SUNNY     34  10  37 W41G52    29.66R WCI  18
6HR MIN TEMP:  34; 6HR MAX TEMP:  42;

SCOTTSBLUFF NE SUNNY     44  25  47 NW17G26   29.63R
6HR MIN TEMP:  38; 6HR MAX TEMP:  49;

OMAHA NE       PTSUNNY   48  35  60 S23       29.70F
6HR MIN TEMP:  35; 6HR MAX TEMP:  48;

DES MOINES IA  MOSUNNY   48  37  65 S17G25    29.81F
6HR MIN TEMP:  32; 6HR MAX TEMP:  48;

DAVENPORT IA   CLOUDY    32  31  96 S15       29.95F FOG     WCI  22
6HR MIN TEMP:  31; 6HR MAX TEMP:  32;

CHICAGO IL     CLOUDY    32  31  96 S13       30.02F FOG     WCI  22
6HR MIN TEMP:  32; 6HR MAX TEMP:  33;

EAU CLAIRE WI  CLOUDY    33  32  96 SE10      29.81F FOG     WCI  25
6HR MIN TEMP:  25; 6HR MAX TEMP:  33;

LA CROSSE WI   CLOUDY    38  33  82 S10       29.85F
6HR MIN TEMP:  35; 6HR MAX TEMP:  38;

$$

  *****  SOME NATIONAL WEATHER *****

CITY           SKY/WX    TMP DP  RH WIND       PRES   REMARKS
LA GUARDIA NY  MOSUNNY   50  36  58 W12       29.94F
6HR MIN TEMP:  41; 6HR MAX TEMP:  50; 6HR PCP:  0.02;             C1F1C2F2C3F3C4F4C5F5C6F6C7F7C8F8C9F9CaFaCbFbCcFcCdFdCe!



USA.gov is the U.S. government's official web portal to all federal, state and local government web resources and services.